Wind_Speed
46 44 46 47 48 55 62 65 62 57 53 49 46 45 46 49 48 49 52 50 46 42 42 45 45 45 43 42 42 42 42 43 44 46 48 46 43 41 40 40 38 37 35 34 35 35 35 33 32 31 29 28 28 28 25 23 21 21 23 20 19 17 13 10 11 13 12 12 12 11 11 11 9 8 7 7 6 6 4 3 2 3 5 5 5 5 4 4
48 46 45 46 47 50 58 66 65 60 56 50 48 47 45 49 49 48 51 51 49 44 42 44 45 45 44 43 42 41 41 42 44 47 48 45 43 43 41 40 39 37 35 35 35 35 35 34 33 32 30 29 29 29 27 24 22 22 23 22 21 18 16 18 18 17 15 14 12 11 12 12 11 9 8 7 7 7 5 3 3 2 4 5 6 6 4 4
49 48 46 46 46 48 52 63 68 64 60 54 50 48 46 48 50 49 51 52 50 45 43 43 44 46 44 43 42 40 41 42 47 50 47 44 44 43 41 41 39 37 36 35 35 34 34 34 33 32 30 27 28 30 27 26 24 22 23 25 25 21 21 24 22 20 17 15 13 12 12 13 13 12 9 8 8 7 5 4 4 4 6 7 7 7 6 6
49 49 48 46 46 47 49 57 67 68 64 59 53 50 48 48 50 51 52 53 51 46 45 45 45 46 46 44 41 41 40 43 51 51 45 45 45 43 43 42 40 38 37 36 35 34 35 34 33 33 30 23 25 31 27 27 24 20 25 25 23 24 25 25 24 22 19 16 15 14 13 14 14 13 12 10 8 4 4 6 7 7 9 10 8 8 7 7
50 50 49 47 46 48 48 51 62 69 67 63 57 51 49 49 50 52 53 55 53 50 46 44 44 46 46 44 42 42 42 44 52 50 44 46 45 43 44 42 41 39 38 37 34 35 34 34 35 34 32 24 24 31 27 27 24 20 25 22 18 22 23 25 24 22 20 18 16 15 15 15 15 14 13 13 11 5 5 8 9 10 12 12 10 9 8 8
50 50 49 48 47 48 49 49 55 65 69 67 61 53 49 48 50 52 53 55 54 51 46 42 43 46 46 44 43 44 47 48 48 46 44 44 43 43 43 42 42 40 39 37 36 36 34 35 36 34 33 26 24 31 26 27 27 22 22 21 23 23 21 25 26 22 20 18 17 18 16 16 15 15 16 15 14 11 10 10 11 12 14 13 11 10 9 8
50 50 50 49 49 49 49 50 52 59 67 68 64 57 51 47 49 53 53 56 56 51 48 44 43 47 48 46 45 45 52 52 43 40 44 43 42 42 42 41 42 41 39 38 38 38 37 37 36 34 34 28 26 30 25 28 30 23 17 20 28 27 24 26 26 24 23 20 19 19 17 17 17 17 19 17 16 15 11 11 12 14 15 14 13 12 11 10
50 50 51 50 50 50 49 50 51 55 63 67 65 60 55 50 49 53 54 56 57 53 52 50 42 45 51 50 49 50 55 55 46 38 40 42 42 41 42 41 42 42 40 40 39 38 37 38 37 36 35 28 28 28 27 29 29 27 19 18 26 27 28 26 24 25 25 24 22 20 18 18 19 20 21 19 17 17 14 12 13 15 16 16 15 14 13 12
50 50 51 51 50 50 50 49 49 52 58 64 64 61 58 52 49 52 56 57 59 56 56 56 45 42 52 53 51 55 58 55 51 42 36 39 44 42 41 42 42 42 42 40 40 39 38 39 37 37 36 30 27 27 31 30 24 28 23 19 26 26 27 25 23 25 24 25 25 23 22 21 23 23 21 21 19 19 16 14 14 16 17 17 17 16 15 14
49 51 51 51 50 50 49 49 48 49 54 60 62 62 60 55 50 50 56 59 60 59 57 57 49 44 53 57 54 59 59 51 49 47 37 35 41 43 41 41 41 40 42 42 41 40 39 39 37 37 38 36 31 28 34 32 23 25 25 26 30 25 26 25 24 25 23 25 26 26 25 26 28 26 23 23 22 20 19 17 15 17 19 19 18 17 16 16
49 51 52 51 50 50 49 48 48 48 51 56 58 60 60 58 52 50 56 59 59 62 59 55 48 46 53 58 60 64 60 50 46 47 42 34 35 42 43 40 39 38 40 41 41 41 40 40 39 38 38 39 36 32 35 36 29 27 27 30 31 26 26 26 25 26 24 25 24 25 26 28 31 32 28 25 23 21 21 21 18 17 19 20 20 19 18 18
50 50 52 52 50 51 50 48 49 49 50 54 56 57 58 59 56 51 57 60 58 61 62 57 47 43 50 57 62 65 59 52 45 44 45 38 29 33 39 38 37 37 37 39 41 41 41 40 41 41 41 40 36 33 35 37 34 31 30 27 25 27 29 27 27 26 24 25 23 22 25 28 31 33 29 25 25 23 23 24 21 19 20 21 21 20 20 19
50 50 51 52 50 50 52 49 49 50 50 52 53 53 53 57 58 54 57 60 58 55 58 62 50 42 50 55 61 63 56 52 46 42 46 43 31 27 35 37 34 34 35 39 41 40 40 41 43 45 44 39 34 33 33 34 34 32 31 28 20 22 27 26 27 27 26 26 24 21 23 26 24 25 25 25 28 27 25 26 24 22 21 21 22 21 21 20
49 50 50 51 50 51 52 50 49 49 49 50 49 48 47 52 59 57 58 60 57 50 53 63 56 45 48 53 58 60 55 52 47 44 45 46 38 29 32 36 34 36 38 38 38 38 40 43 45 47 44 38 36 36 31 30 33 31 28 30 26 20 20 21 24 27 27 26 25 22 25 29 24 22 25 23 26 29 28 26 26 26 23 23 23 23 22 22
49 50 49 49 50 51 51 50 50 49 47 46 46 44 43 48 56 58 59 61 59 48 47 60 61 49 47 50 54 58 58 55 50 47 45 45 44 36 32 36 38 37 37 36 36 38 41 44 46 47 44 39 36 36 31 28 28 27 25 25 27 24 19 19 22 24 24 26 27 23 24 27 24 25 28 22 21 29 31 28 28 29 27 25 24 25 24 23
50 50 50 50 50 50 50 49 49 48 45 44 43 43 43 45 51 57 60 60 58 48 42 55 63 52 47 50 51 55 60 59 54 49 47 45 44 40 33 34 37 36 36 38 38 40 42 44 46 46 44 40 37 34 32 30 26 24 26 21 21 22 19 20 24 25 24 25 26 25 23 21 21 27 28 22 20 27 32 31 30 31 30 28 26 27 26 25
51 51 51 52 51 50 49 49 47 45 42 42 42 42 43 43 45 55 62 60 56 47 38 48 62 55 47 49 50 55 59 58 57 53 49 47 43 40 36 35 38 38 40 42 42 43 42 42 43 44 44 41 40 36 30 31 28 22 24 23 17 17 18 19 22 27 27 26 26 28 29 28 28 30 30 26 22 25 31 34 33 32 33 32 30 29 28 28
53 53 52 52 52 50 49 48 46 43 40 41 42 40 41 42 42 48 60 63 55 45 37 42 58 56 44 47 50 52 57 56 57 57 53 49 44 41 38 36 38 41 42 44 44 45 44 43 42 42 43 41 41 39 33 32 30 22 20 24 20 18 23 21 19 24 26 23 24 26 29 32 32 30 30 29 26 25 29 35 36 35 35 34 33 31 30 30
52 51 51 51 50 49 47 46 44 41 40 41 41 38 38 38 38 42 52 63 59 48 39 40 54 52 39 44 50 47 53 56 55 56 55 52 47 43 40 37 36 39 44 46 46 46 46 44 43 43 46 46 45 43 38 29 25 22 18 22 23 21 23 20 19 26 26 23 25 26 27 32 33 31 30 29 28 27 29 34 38 37 37 37 36 34 32 31
50 49 49 48 48 47 45 44 42 40 39 39 39 38 37 37 38 41 46 59 62 50 41 41 50 53 41 37 45 46 49 54 54 56 57 55 51 47 44 42 38 39 44 47 47 47 46 45 47 50 50 48 45 43 39 26 19 21 19 19 24 23 20 15 18 29 32 28 26 26 28 33 37 35 32 30 30 30 30 33 39 40 39 39 38 37 35 33
48 47 47 45 44 42 41 41 39 38 37 37 39 39 41 42 43 46 49 59 64 52 45 44 41 49 49 36 36 43 47 52 53 55 58 56 53 50 48 46 44 43 45 45 46 46 44 46 51 51 49 46 42 41 38 28 19 19 20 20 24 26 21 15 17 27 33 30 27 27 27 33 39 39 35 33 33 33 31 30 37 42 41 40 40 40 37 35
46 46 46 43 41 39 38 38 36 36 37 38 38 39 42 42 42 45 48 58 66 57 49 50 39 37 49 45 35 35 42 51 55 55 58 55 52 54 53 50 48 47 45 44 46 45 43 49 52 48 45 43 40 39 37 31 22 18 21 23 25 24 21 20 24 30 34 32 29 28 28 33 41 43 38 35 35 35 32 30 33 39 43 43 42 41 40 38
45 46 44 42 40 38 37 36 36 36 38 38 37 38 40 38 36 37 38 46 60 60 53 55 47 33 38 46 40 35 37 47 56 57 57 55 53 54 54 54 51 48 45 45 48 47 47 51 50 45 43 40 38 36 35 32 26 22 21 22 24 22 20 20 22 26 31 31 28 28 31 37 42 44 42 38 37 37 33 31 31 34 40 45 45 43 42 41
45 43 41 40 39 37 37 36 36 36 36 36 35 36 37 34 33 33 32 34 47 59 58 56 49 34 32 40 41 38 37 42 53 56 57 58 55 52 53 55 53 50 48 47 48 50 50 46 42 39 38 38 37 35 34 33 29 26 24 23 22 20 20 19 17 19 21 22 25 26 29 36 42 45 44 39 37 39 37 33 33 34 36 41 47 47 45 43
43 41 39 39 37 37 37 36 37 36 35 35 34 34 33 31 30 29 28 31 40 52 56 57 51 35 28 36 39 36 35 40 49 53 55 59 56 54 54 53 52 51 49 47 46 50 48 36 31 35 35 35 35 36 37 35 30 26 25 25 22 17 17 17 19 22 18 15 19 20 17 20 30 35 32 28 31 37 38 37 35 35 35 37 43 48 49 46
40 39 38 37 37 37 37 37 37 36 35 36 35 31 28 29 27 25 26 26 34 46 50 54 57 43 30 34 39 35 34 41 47 50 54 56 55 55 55 52 51 49 48 46 42 42 41 31 28 35 35 31 29 31 36 35 30 25 25 25 23 19 17 15 15 17 15 13 14 16 13 13 23 32 28 22 27 33 37 40 37 33 34 36 39 43 48 49
38 37 37 37 37 37 38 38 37 36 35 34 34 31 28 28 24 24 25 15 22 44 49 49 54 52 41 34 35 35 34 39 45 49 53 55 55 53 54 53 51 47 47 45 38 38 39 32 30 34 33 32 30 28 30 30 27 25 23 23 25 25 21 15 13 14 16 19 20 21 20 20 29 40 40 34 36 38 38 41 38 32 31 35 37 38 42 47
36 36 36 37 37 37 38 38 37 37 35 32 32 30 26 25 21 24 23 6 9 34 46 48 51 51 46 38 35 36 34 35 44 51 53 55 55 51 51 56 55 51 48 45 42 42 43 38 35 34 31 32 33 28 27 27 25 24 20 18 22 25 23 17 13 17 21 21 24 24 20 17 23 33 39 39 42 44 42 40 39 33 30 31 34 34 36 41
33 34 36 37 37 38 37 36 36 37 35 33 31 28 25 22 24 28 19 5 9 25 37 45 50 47 44 43 39 38 38 33 37 49 53 55 57 53 50 54 56 53 48 45 43 39 40 41 38 34 32 33 31 26 27 27 27 27 21 17 19 22 24 21 17 20 20 16 19 21 15 13 18 25 34 40 40 41 41 37 35 33 28 27 29 30 31 34
32 33 34 36 37 38 37 34 35 36 35 34 31 28 26 25 29 26 11 9 15 22 31 39 45 44 42 44 41 36 38 34 32 42 50 56 60 56 51 51 54 52 48 45 43 38 37 40 38 34 33 30 25 25 26 25 27 28 24 21 21 20 22 23 21 19 13 12 19 20 17 15 16 13 20 36 38 33 36 36 31 28 24 22 24 26 26 28
30 30 31 33 35 37 37 33 34 37 35 34 32 30 30 32 33 19 6 14 17 19 32 37 39 43 42 44 42 37 38 39 37 39 50 59 60 56 52 48 49 48 46 45 43 40 35 34 37 38 35 27 24 28 28 26 28 28 26 25 19 13 15 15 14 12 9 8 9 12 16 16 17 12 8 22 30 26 29 30 25 24 22 20 22 23 24 25
29 29 29 31 32 34 35 32 34 36 35 37 33 30 33 32 26 15 11 18 15 18 35 37 36 41 40 42 46 44 40 42 43 40 49 60 59 59 56 51 51 45 40 45 45 41 38 36 38 39 38 34 31 33 31 30 32 29 27 27 17 8 7 9 7 6 9 8 2 7 11 14 29 35 25 27 31 28 29 28 24 23 22 21 23 23 24 25
28 28 27 28 28 31 33 32 34 35 36 39 34 31 32 22 13 16 21 21 13 19 35 36 37 40 38 41 47 47 41 42 46 41 46 57 57 59 59 54 58 52 46 52 50 39 32 33 40 41 40 40 39 38 38 37 37 34 31 29 21 10 5 8 7 4 8 8 6 10 9 13 32 41 38 37 35 33 34 33 31 28 24 23 24 25 27 27
28 27 26 26 26 28 31 30 31 33 34 38 37 33 27 11 9 23 27 22 15 21 34 34 37 39 37 41 48 50 46 43 46 42 44 53 51 52 55 52 56 56 51 52 48 39 26 22 38 45 42 44 43 41 43 44 40 36 32 29 24 16 8 6 7 7 8 5 7 12 9 12 19 22 27 24 21 23 24 24 25 24 22 22 22 21 22 24
27 26 25 25 25 25 28 27 29 32 33 39 38 33 26 12 12 22 24 23 20 24 33 31 32 36 36 41 46 51 52 47 47 43 42 51 50 47 53 55 56 55 52 46 41 41 32 23 36 47 46 45 42 39 41 39 35 34 32 30 28 24 15 6 4 8 9 4 6 13 15 23 25 26 30 22 19 22 20 20 22 21 19 20 20 18 16 19
24 25 24 24 24 24 26 26 29 31 32 38 36 31 30 23 19 20 21 24 23 25 35 33 31 35 36 41 43 46 50 48 48 45 40 48 53 48 50 56 59 58 56 51 44 41 34 24 33 45 45 44 42 42 42 35 31 32 33 35 35 29 21 11 7 7 7 7 10 15 23 33 33 36 39 34 33 34 32 33 33 31 30 29 28 26 24 24
23 24 23 23 24 24 26 27 28 30 30 35 35 31 35 31 23 20 21 26 22 22 36 38 33 36 34 35 40 44 48 45 44 46 42 42 48 48 46 49 57 59 56 54 50 44 34 22 29 42 44 43 42 41 41 37 34 33 36 40 37 29 25 20 10 6 6 8 11 16 24 25 19 22 25 23 28 29 25 26 26 26 29 27 25 21 20 20
23 24 22 23 24 25 28 28 29 30 30 33 34 30 32 32 28 23 21 27 24 21 34 37 33 41 39 31 34 42 48 46 44 45 44 40 40 46 48 46 54 61 56 49 44 42 35 20 21 37 43 41 41 38 36 38 39 37 37 39 33 22 21 23 15 7 7 7 8 14 21 21 22 29 25 21 26 24 17 17 19 21 21 19 19 18 18 20
24 24 23 23 25 25 28 29 29 30 29 33 36 31 30 33 33 26 22 28 29 23 29 33 31 41 45 37 33 37 44 47 48 47 44 40 39 47 53 50 51 58 57 47 39 41 40 23 16 31 40 38 38 39 39 40 41 39 36 37 36 24 19 24 21 13 9 8 7 10 13 18 31 44 42 36 36 32 25 24 25 26 27 27 27 26 26 26
25 24 23 24 25 26 27 27 27 30 28 30 33 31 31 33 33 30 24 27 30 25 25 28 28 35 46 44 36 35 39 40 45 52 49 45 44 45 52 54 52 55 57 46 37 39 40 29 21 27 34 34 35 41 46 47 46 44 39 38 38 31 22 19 22 21 16 9 7 7 9 17 28 33 30 25 22 21 20 20 18 19 23 26 26 25 24 22
24 24 23 24 25 25 27 26 26 29 28 25 25 25 28 29 31 32 29 26 27 25 24 25 24 27 39 45 38 35 38 35 38 48 50 49 48 45 49 56 56 56 55 47 40 39 37 33 30 31 34 36 37 42 46 46 46 48 45 40 39 38 29 14 12 22 23 16 11 7 8 20 27 21 17 18 18 21 24 24 20 18 18 19 19 18 17 18
24 24 22 24 25 25 25 25 24 25 25 23 23 25 28 28 28 30 31 29 27 26 25 25 23 21 28 38 37 33 37 38 35 39 45 48 52 51 50 55 59 59 58 54 48 45 40 35 33 34 37 34 31 35 41 42 46 48 43 34 31 37 38 25 14 17 21 23 23 14 11 26 35 27 26 29 28 28 26 21 18 15 15 17 18 20 21 21
26 24 22 23 25 25 24 26 26 26 26 25 25 26 28 29 28 28 30 30 29 28 26 24 22 20 22 28 32 31 32 37 36 35 39 44 52 56 51 52 58 61 61 57 51 46 40 34 29 26 27 29 27 31 37 38 42 47 46 39 33 37 45 40 26 18 15 21 25 15 12 35 48 39 37 37 33 30 22 17 19 19 21 22 23 24 24 23
25 23 21 22 25 26 27 29 30 30 31 28 26 25 25 26 27 27 28 29 30 30 29 27 23 21 21 22 27 30 28 31 35 38 41 40 42 51 53 50 54 63 66 61 57 52 40 33 31 21 12 16 19 21 27 35 44 51 57 55 48 45 44 40 34 25 17 20 25 15 15 40 50 42 42 40 35 31 23 18 22 23 24 24 21 21 21 21
22 22 22 22 24 27 29 30 30 30 30 28 27 26 25 24 24 26 27 27 29 29 30 31 28 24 23 22 23 27 27 28 30 34 43 43 37 41 48 46 46 57 66 63 60 56 42 35 40 31 15 12 14 19 32 46 51 49 49 52 52 47 41 39 37 28 21 27 30 21 25 45 49 43 45 43 34 27 22 19 19 19 20 19 17 18 20 21
21 23 24 24 25 28 30 29 28 29 29 26 25 25 25 25 24 23 24 25 27 29 29 30 31 29 29 27 23 21 24 28 28 29 37 44 41 36 39 45 46 50 60 61 56 52 44 37 43 44 39 37 36 35 43 50 49 43 40 42 45 41 37 37 34 31 34 34 28 29 41 54 56 49 45 42 36 31 29 28 26 22 20 18 18 20 21 23
23 24 27 28 27 28 31 31 30 30 29 28 29 29 28 28 26 24 25 25 25 27 29 30 31 32 33 33 30 24 20 22 28 32 33 39 45 39 35 44 48 46 54 59 53 49 44 39 42 46 46 48 47 42 42 43 47 49 46 42 42 40 39 38 35 40 45 32 26 44 57 58 59 54 45 42 39 35 34 35 32 25 22 20 21 23 24 25
25 25 27 28 26 27 31 33 34 34 33 31 32 32 32 31 30 29 28 26 26 27 29 31 33 34 36 35 34 32 27 21 25 33 34 35 40 39 34 39 44 45 50 55 54 51 45 42 45 44 39 40 43 42 42 39 40 48 52 50 49 47 47 48 49 54 52 41 43 57 56 54 59 56 50 49 45 40 38 36 32 25 22 22 24 26 26 25
26 26 25 26 27 29 28 28 31 33 34 34 31 32 34 33 33 32 30 28 28 29 30 32 33 34 36 37 37 39 37 29 25 30 36 36 38 37 33 34 39 42 46 52 52 49 44 42 44 42 39 39 38 38 41 38 33 38 46 51 53 52 52 54 57 61 57 54 62 59 45 51 59 52 48 48 45 44 41 35 32 29 27 26 27 28 26 22
26 27 25 25 28 29 25 23 25 29 32 32 31 33 34 34 35 34 33 32 31 31 31 32 32 32 33 37 39 42 43 38 32 31 33 37 41 41 37 39 43 44 46 51 51 48 46 42 41 42 39 38 38 36 36 35 34 34 37 42 50 54 56 57 59 62 61 63 68 55 40 53 62 52 47 46 43 41 38 35 37 37 33 30 29 30 28 24
26 27 26 25 26 27 26 24 23 28 32 31 32 34 33 33 36 36 35 36 34 33 32 31 30 31 33 37 40 44 46 42 37 33 31 34 39 42 43 45 48 48 50 53 52 52 51 42 39 40 35 36 45 42 35 34 32 31 34 38 46 54 57 59 60 62 63 65 64 51 45 60 65 55 49 47 46 44 41 42 42 37 33 31 30 31 31 29
25 26 27 28 29 30 30 28 26 30 35 34 35 38 38 38 40 38 37 38 38 37 35 32 30 31 37 40 41 43 46 46 42 37 32 32 35 41 47 48 48 50 53 56 55 56 55 46 40 39 34 37 44 41 37 32 21 24 41 47 48 52 52 54 59 60 60 62 61 56 56 59 57 52 49 48 47 46 44 43 40 33 29 28 30 34 36 36
Wind_Direction
220 220 219 221 220 216 214 215 216 215 213 210 210 215 213 211 212 212 211 209 206 209 215 215 212 212 213 214 213 212 212 214 215 215 216 216 216 216 216 216 216 215 215 215 214 215 216 218 221 224 225 225 226 228 229 227 224 223 222 225 229 224 224 223 211 210 214 230 238 227 217 219 229 230 232 237 234 236 240 255 273 285 286 282 278 271 248 220
218 219 217 219 221 219 215 214 216 216 215 212 209 212 213 210 210 210 211 209 207 209 212 213 212 212 213 215 212 212 213 215 217 218 217 215 215 215 215 216 216 215 215 216 216 216 217 218 221 223 223 225 228 229 230 229 224 223 223 225 229 222 222 223 218 221 225 234 241 235 224 221 229 233 240 245 240 241 242 257 260 258 276 273 265 258 242 226
216 218 217 217 219 220 217 214 214 216 216 215 211 210 212 211 208 207 209 210 209 209 211 212 213 212 213 214 212 211 213 216 219 218 215 214 215 215 215 216 216 215 215 216 217 216 216 218 221 222 220 221 227 228 229 230 227 225 223 226 229 223 224 228 228 234 234 235 242 242 234 227 229 233 239 244 239 245 257 254 246 237 245 242 240 239 221 213
215 217 217 216 217 218 218 215 214 215 216 216 214 210 209 211 209 206 207 210 209 210 211 211 213 214 213 213 211 211 214 220 221 217 213 213 214 214 215 216 215 215 214 215 215 215 215 216 219 221 216 214 228 229 226 231 229 225 226 228 232 229 228 232 233 236 234 231 238 243 244 237 232 232 236 242 238 254 285 249 233 235 244 238 230 234 222 207
214 215 216 216 217 217 218 217 215 215 216 216 216 212 208 208 209 206 205 209 210 210 212 210 212 214 214 213 211 211 213 222 224 216 211 213 213 214 215 215 215 214 214 214 214 216 215 214 217 220 214 207 225 229 226 233 229 224 231 226 227 234 233 234 234 235 234 230 233 239 244 244 239 235 235 238 231 211 227 236 234 233 238 237 227 230 230 215
214 213 214 215 217 218 217 217 217 216 217 217 216 215 210 207 208 207 204 206 208 210 212 212 214 215 215 214 212 214 214 219 224 216 211 213 212 214 215 215 216 215 215 213 212 215 213 215 217 217 215 207 221 232 226 231 230 224 230 221 215 223 229 234 234 232 233 229 230 235 240 247 246 241 237 235 234 228 226 233 238 238 238 237 228 226 228 224
215 212 212 214 215 217 217 216 217 217 219 219 217 215 214 208 206 206 204 204 206 208 210 210 214 216 215 213 212 217 219 220 223 217 212 213 212 214 215 215 216 215 215 214 213 214 212 216 216 215 215 206 218 231 222 229 233 222 223 229 222 219 226 234 234 233 236 232 230 233 238 245 247 245 240 234 237 241 237 234 238 242 243 239 233 227 224 223
214 212 212 214 214 215 217 216 217 218 220 221 220 217 215 211 205 204 203 203 204 206 208 207 211 216 213 212 212 217 222 220 219 218 212 212 212 213 213 214 215 214 214 215 215 215 215 217 215 216 216 208 217 224 218 226 233 217 211 235 231 224 231 235 235 237 239 239 238 236 237 244 246 245 244 237 236 242 238 234 236 241 245 242 239 232 225 222
214 212 212 213 213 215 217 217 216 218 220 222 223 219 216 214 208 203 202 202 203 205 209 209 213 218 213 212 212 217 223 219 216 216 212 211 212 213 213 214 214 213 214 214 216 216 217 218 217 218 215 210 213 216 218 222 227 220 214 231 234 227 231 233 235 240 241 243 244 242 240 244 245 243 246 242 235 239 240 237 235 237 243 244 242 237 229 225
214 212 212 213 213 214 217 218 216 216 220 222 223 221 217 216 213 206 202 202 202 204 210 213 217 221 213 211 212 218 223 220 217 215 212 213 213 214 213 214 215 214 214 214 216 217 217 219 217 217 216 213 209 209 220 219 219 225 219 229 235 230 232 234 237 241 243 247 249 249 245 245 247 244 244 243 236 236 241 241 237 236 241 244 244 240 235 230
215 212 212 213 212 213 216 218 217 216 218 221 223 222 218 217 217 210 204 203 203 206 211 212 219 221 212 210 213 219 221 218 217 215 214 213 212 215 215 215 215 215 216 215 217 218 218 220 217 215 216 215 210 210 220 219 216 222 223 232 239 237 237 238 242 245 247 250 252 253 252 248 249 245 238 240 241 235 238 242 238 235 238 242 244 242 238 235
215 213 212 212 211 211 214 217 218 217 218 220 223 223 219 216 217 214 207 204 206 211 212 211 219 221 212 211 215 220 220 217 216 214 215 215 211 215 216 216 217 215 217 216 217 218 219 221 218 215 215 215 212 212 220 222 220 223 228 235 242 244 243 242 244 246 247 250 253 257 259 253 250 251 245 240 243 239 236 240 239 236 237 239 243 243 240 238
215 214 213 212 211 210 213 215 216 218 219 220 223 225 223 217 215 215 211 207 208 214 215 212 217 218 212 213 215 218 220 217 215 212 215 216 210 211 213 213 215 214 215 216 216 217 218 219 217 215 214 214 213 215 220 222 222 225 231 235 239 249 250 247 247 247 247 250 253 257 262 257 252 260 259 244 239 239 236 238 239 238 236 238 241 242 241 239
213 213 213 213 212 210 211 213 215 217 219 220 222 225 224 219 216 215 211 210 212 214 216 214 215 217 215 216 217 216 218 217 213 212 214 215 211 207 208 208 208 210 212 215 215 216 216 214 215 215 210 209 213 218 220 222 223 224 231 236 235 244 253 252 252 251 250 251 250 252 260 260 255 257 261 252 240 238 237 236 238 239 236 237 239 240 240 239
213 212 211 212 212 211 210 211 214 217 220 221 223 225 224 220 218 216 210 211 215 214 216 216 216 218 216 216 217 215 217 217 213 211 213 215 213 208 205 203 204 207 210 212 213 213 213 212 213 213 209 207 214 219 219 221 223 220 225 235 234 238 247 253 258 257 253 252 249 248 257 263 262 257 259 261 249 239 237 236 237 240 239 236 238 238 238 238
212 211 209 210 212 212 210 209 211 215 220 221 223 224 223 220 218 217 211 211 218 216 216 218 216 218 219 216 216 214 215 217 214 212 212 214 214 211 208 204 203 205 207 208 210 211 212 211 212 212 210 208 212 217 217 218 220 216 218 228 231 231 240 250 258 261 255 250 248 247 253 260 263 262 262 266 260 244 236 236 236 238 241 239 238 238 235 236
209 208 207 208 210 211 210 208 210 213 217 219 221 222 222 222 218 217 214 212 218 218 217 219 216 219 223 219 216 214 213 215 214 212 211 212 211 210 210 206 202 202 205 206 207 209 210 211 211 210 209 208 210 212 210 211 210 207 215 225 226 224 232 241 250 259 256 249 250 253 255 255 256 263 269 270 268 253 237 235 237 237 240 240 239 239 237 235
208 207 206 206 206 208 208 207 208 210 211 213 217 220 222 223 219 216 215 213 216 217 215 217 215 218 223 218 217 215 212 213 214 213 212 209 205 205 209 209 205 202 203 206 206 207 208 210 212 209 207 208 208 207 206 207 205 201 207 217 218 221 231 233 241 255 258 253 251 254 258 261 259 260 267 267 266 260 244 235 237 237 237 240 240 239 239 237
206 206 204 202 202 204 206 206 207 208 208 209 213 217 221 222 219 215 215 213 213 212 212 214 212 215 221 216 216 216 213 213 212 211 211 209 204 200 203 208 208 205 204 205 207 208 208 207 207 208 208 208 207 207 208 208 208 208 208 215 219 226 236 236 239 249 255 257 255 256 262 267 265 260 261 263 260 259 252 238 235 237 236 237 240 239 239 238
203 203 201 199 198 199 202 203 206 207 206 207 208 210 212 210 208 209 212 213 212 209 210 212 210 215 221 216 214 214 211 211 211 209 207 204 203 199 199 202 204 206 209 208 207 209 209 206 207 210 211 210 209 211 211 210 211 211 212 221 224 229 238 238 242 251 255 257 260 263 266 267 267 264 262 262 259 255 255 244 234 235 236 235 237 239 239 239
199 199 197 196 195 194 196 199 202 205 204 204 206 207 209 207 207 211 214 215 215 211 208 209 210 218 223 219 212 210 208 207 209 211 206 199 198 198 196 199 199 201 209 211 209 210 207 208 214 215 214 213 213 213 213 213 214 211 214 225 228 232 240 242 246 255 258 257 261 264 266 267 266 266 263 260 258 254 255 252 239 234 235 235 236 237 238 239
192 192 192 191 192 191 192 194 195 199 198 198 202 206 213 217 220 222 221 219 218 214 209 207 210 220 224 223 216 210 207 205 205 207 204 195 193 196 196 197 199 200 203 206 208 207 208 214 219 218 217 218 216 216 215 214 216 214 217 226 230 233 242 246 249 255 259 262 266 267 265 265 264 265 264 259 255 252 250 254 247 238 235 235 235 235 236 238
186 184 185 185 188 188 189 190 191 195 196 197 201 207 215 219 221 223 222 220 220 217 210 207 212 220 224 225 222 217 212 206 203 202 200 195 192 196 198 197 198 200 199 201 205 204 208 217 220 218 218 217 214 214 214 213 213 211 212 221 229 231 235 241 251 257 260 263 266 267 267 267 265 263 263 258 253 251 248 250 252 246 239 236 236 235 234 236
184 181 181 182 184 185 187 187 189 193 196 200 204 210 215 213 213 216 215 215 219 219 213 208 213 219 220 222 222 221 219 211 207 202 197 197 193 194 200 200 198 199 199 201 205 207 211 215 215 213 214 214 214 213 212 211 211 210 210 217 226 227 225 232 248 256 263 270 269 272 276 272 267 264 264 262 256 253 249 247 252 253 247 241 238 237 235 234
183 181 181 181 182 183 184 185 188 192 194 198 202 207 208 203 203 208 207 209 214 219 217 211 212 216 217 218 220 223 220 214 211 206 200 198 194 191 197 201 199 197 199 201 204 209 212 212 208 207 210 211 212 214 214 212 211 216 218 217 220 221 223 232 244 252 265 278 272 273 281 275 267 263 264 264 260 257 254 251 252 255 255 249 242 238 237 235
180 179 179 180 181 181 182 185 188 190 193 197 199 200 200 198 200 201 199 206 215 217 217 213 213 216 214 211 216 222 221 216 212 210 206 198 194 193 194 197 198 198 199 200 203 208 210 209 205 207 208 204 204 212 216 210 207 217 220 212 209 214 221 230 243 255 260 257 260 266 267 277 272 258 249 251 257 256 255 255 254 253 256 256 250 243 239 236
177 178 180 181 181 180 182 187 187 189 193 195 197 198 198 199 200 195 192 203 224 217 215 212 212 217 217 208 206 208 211 215 211 209 208 200 195 195 193 193 195 197 199 197 199 207 208 204 201 204 205 201 200 206 208 203 203 216 221 211 213 216 219 234 248 251 253 255 263 267 267 277 274 260 250 248 254 255 254 255 254 252 254 258 258 251 244 240
179 181 183 183 182 182 185 188 187 190 195 194 196 198 196 197 191 182 183 186 219 212 214 213 210 215 219 213 206 200 201 211 209 205 207 203 199 196 195 196 197 198 199 196 198 206 208 204 201 199 198 200 204 203 200 198 203 216 219 215 222 223 223 235 244 243 256 269 269 265 263 268 271 267 260 256 258 258 254 253 256 257 255 258 262 259 251 245
184 186 189 188 186 186 187 189 190 192 195 194 196 195 190 189 179 174 180 197 194 201 211 212 209 212 216 215 214 206 200 205 207 205 205 203 202 199 196 199 201 200 198 199 201 204 207 207 206 201 198 204 206 202 201 199 203 214 214 213 222 222 222 228 234 247 262 272 264 254 237 248 276 274 263 262 262 258 256 258 260 262 261 259 263 264 257 249
185 189 191 191 189 189 188 188 192 195 194 192 191 191 189 181 174 173 183 202 190 195 203 206 207 210 211 213 215 213 208 206 207 206 204 203 203 201 200 200 203 201 198 200 204 206 209 209 207 204 205 208 202 199 203 200 204 213 211 214 220 218 221 228 239 252 262 261 258 250 224 237 280 276 256 262 262 260 264 265 262 261 260 254 257 262 260 253
180 183 185 187 189 191 190 190 192 194 193 190 186 187 184 175 174 178 189 191 188 191 197 202 206 208 210 209 209 212 213 210 209 205 201 200 201 201 200 197 197 198 197 199 204 209 213 209 205 208 209 204 198 201 202 199 205 212 211 211 212 210 218 231 242 240 236 249 261 247 225 228 249 244 242 264 263 261 264 264 262 261 254 245 251 260 261 257
175 176 177 180 184 188 191 193 192 192 191 187 184 181 174 169 177 188 189 193 193 186 191 198 203 205 209 209 208 211 211 208 209 207 201 199 198 200 201 196 191 188 189 196 202 208 215 213 209 211 210 204 200 198 196 200 208 211 208 203 193 179 199 217 222 216 228 244 213 185 193 219 247 254 254 258 261 261 261 265 267 261 253 249 253 259 261 261
172 174 175 176 178 183 188 192 192 192 191 186 186 184 175 170 183 187 188 196 192 179 188 199 204 205 207 205 206 208 209 209 208 206 204 200 197 200 203 201 197 193 190 194 197 198 204 211 210 209 207 206 207 201 195 199 204 206 203 194 186 177 184 213 212 219 237 239 209 186 189 243 260 264 263 260 264 266 265 267 268 263 260 257 256 259 262 261
171 172 174 175 176 180 185 188 188 191 190 186 189 189 183 183 187 184 190 194 181 178 187 195 201 205 209 207 205 204 204 210 209 205 205 201 196 197 200 200 200 199 194 191 192 191 187 197 204 206 206 207 210 211 211 209 203 203 203 196 196 195 189 206 204 215 226 207 189 185 194 242 250 261 269 267 266 264 264 267 267 266 262 257 258 262 262 260
171 172 174 176 176 178 182 182 184 188 189 187 189 193 193 197 188 186 193 189 182 184 185 187 192 195 203 208 208 206 205 209 210 204 204 204 199 195 197 198 197 198 196 189 189 194 193 197 203 207 211 211 208 211 217 215 203 200 201 201 207 207 203 222 230 221 223 213 196 196 222 242 241 250 260 259 259 262 266 270 269 268 262 256 259 262 264 265
173 174 175 175 174 174 177 178 181 185 188 188 189 195 200 201 195 193 192 187 189 190 185 187 191 190 197 203 205 206 205 209 211 204 203 207 204 198 197 199 198 197 198 194 189 191 195 201 203 205 211 215 213 213 217 216 208 203 201 204 211 211 210 230 260 238 229 254 238 219 239 253 257 262 262 258 261 266 269 270 270 269 267 265 264 265 266 266
175 176 174 175 173 171 173 174 178 182 187 190 191 198 203 204 202 197 194 190 192 188 185 189 194 195 198 201 201 202 201 205 209 204 202 207 208 204 198 200 200 197 201 200 194 193 190 187 195 198 204 210 214 217 217 216 215 210 206 209 212 213 214 220 235 228 209 249 247 227 241 254 259 265 267 263 264 268 270 271 273 271 270 269 264 258 257 260
176 175 171 173 173 170 172 173 177 181 185 191 194 199 203 206 206 202 199 198 198 192 187 188 195 201 205 207 204 199 196 201 204 200 201 205 210 208 200 198 201 199 201 203 201 200 192 174 182 194 199 206 210 212 210 212 217 216 214 214 209 204 208 207 211 219 209 232 253 240 246 251 244 247 257 264 266 269 267 265 273 277 275 271 259 250 254 263
173 171 168 171 173 171 172 173 177 181 185 191 196 200 203 204 206 204 203 204 204 202 191 189 194 200 207 214 212 201 194 197 200 199 201 204 210 212 206 201 200 199 199 201 204 207 202 187 176 189 196 198 199 203 205 205 210 214 217 215 209 206 205 204 210 222 224 228 249 254 252 251 253 258 263 265 265 268 269 269 274 275 271 265 263 265 267 267
171 169 169 172 171 169 173 176 179 183 187 190 194 201 205 206 205 203 202 203 206 208 199 196 198 198 204 212 218 213 199 194 198 200 203 207 210 214 211 206 202 199 198 199 206 209 205 198 184 181 189 190 189 198 208 209 205 204 207 205 204 204 201 207 218 222 229 242 250 260 263 256 261 266 266 265 265 263 269 277 279 275 270 265 262 263 262 259
177 176 178 179 174 169 172 179 183 187 193 195 197 204 207 208 208 206 205 204 207 213 209 205 205 200 203 208 216 219 210 201 197 198 202 207 209 212 214 211 207 202 197 198 205 206 203 201 191 178 180 188 192 197 205 212 210 207 206 203 204 204 199 201 222 220 224 234 240 257 281 264 258 254 252 262 271 270 274 280 277 271 267 263 259 259 261 262
186 188 188 186 183 179 179 184 187 190 198 201 204 210 211 210 212 211 212 212 213 217 217 215 215 209 204 207 212 217 214 209 203 198 200 204 208 213 217 214 210 207 202 202 205 205 203 202 193 182 182 189 197 197 197 206 214 213 209 205 206 207 204 205 211 212 215 225 238 258 285 265 256 253 258 265 272 277 281 280 271 258 250 255 263 269 273 273
189 192 193 191 192 193 192 196 198 198 202 204 204 211 214 213 213 213 214 216 218 221 223 221 221 218 213 211 213 216 216 214 213 207 201 203 209 214 217 215 211 209 206 203 202 202 203 200 184 171 180 189 198 203 200 203 210 213 215 214 212 212 212 212 213 214 215 220 229 238 260 257 255 255 261 266 271 275 277 271 264 258 255 262 271 273 272 269
188 188 191 192 195 197 200 204 205 203 205 206 205 209 212 214 216 216 216 219 220 222 225 226 224 221 220 219 220 222 222 219 219 217 210 206 208 211 213 213 210 209 209 208 206 203 202 198 181 157 158 191 199 205 206 207 209 213 219 220 220 220 218 215 215 221 232 230 224 219 243 252 255 259 262 266 271 271 267 267 269 267 264 266 267 265 265 264
191 189 191 193 195 200 204 206 210 213 213 210 209 210 212 214 216 216 216 220 222 225 229 230 229 226 223 224 224 225 229 228 223 220 216 212 210 211 211 209 208 211 213 212 210 206 200 198 190 177 166 181 189 198 204 206 206 210 216 218 220 220 216 214 215 218 230 234 229 228 244 250 255 262 265 265 265 263 262 267 272 273 271 268 263 260 262 264
195 193 192 193 197 204 209 209 213 220 221 219 218 218 217 218 218 216 217 219 222 225 229 232 233 233 230 227 225 224 230 234 231 225 218 214 212 213 211 208 210 215 213 209 209 206 201 202 201 200 201 201 199 203 209 209 204 204 209 212 216 216 211 212 214 216 226 233 234 235 243 251 256 258 261 264 263 261 263 267 270 273 277 275 267 261 260 261
202 202 201 198 199 205 209 209 212 216 217 219 223 223 219 218 219 219 220 221 221 221 225 231 234 236 237 234 232 230 227 232 235 231 226 219 214 214 215 213 214 215 210 207 209 207 202 203 207 210 213 213 210 212 218 216 211 209 208 208 210 211 209 209 213 221 224 223 236 241 241 247 253 252 252 259 264 264 265 268 271 274 275 272 264 257 253 253
206 210 212 210 211 214 214 212 213 215 215 218 225 228 225 222 221 221 220 218 220 221 225 231 232 235 239 237 235 236 233 234 237 232 230 226 219 215 215 215 216 215 209 207 209 209 204 206 211 209 209 214 217 221 223 222 219 218 216 213 212 209 208 208 216 226 221 214 232 242 240 243 251 253 252 254 259 263 265 268 270 271 268 263 258 251 246 247
211 212 215 217 223 228 229 228 224 221 219 219 224 230 230 227 224 225 224 221 221 222 225 231 232 233 237 238 238 239 236 235 235 229 227 228 224 219 212 208 211 213 209 207 208 208 207 209 212 209 209 215 220 225 228 225 222 221 222 222 219 215 215 218 226 230 222 221 235 241 239 245 252 255 254 254 257 260 262 262 261 261 263 262 256 248 242 243
215 214 213 217 225 228 232 237 234 230 227 223 222 227 230 230 225 225 228 227 225 225 225 229 232 234 237 239 240 239 233 229 230 229 228 227 225 221 215 210 209 207 207 208 206 205 208 212 212 209 211 217 219 222 225 222 220 221 223 225 223 222 223 227 233 231 223 227 237 236 237 247 250 251 253 255 259 259 256 257 258 262 265 262 255 248 243 243
221 220 215 216 225 227 228 231 230 230 231 225 222 225 228 229 227 226 231 233 232 232 232 232 234 236 238 240 242 240 232 227 227 231 235 237 235 231 225 219 214 207 203 205 206 206 207 210 211 207 207 216 218 217 218 216 217 220 219 220 221 222 224 227 231 231 226 230 235 231 237 247 249 251 254 256 259 257 255 259 263 268 269 263 257 252 246 243
225 224 218 217 224 227 227 229 227 227 230 230 229 231 232 232 231 230 234 237 237 237 239 241 242 242 242 242 243 238 230 227 228 231 238 246 247 241 233 227 221 214 208 205 205 206 206 205 205 201 203 215 216 213 211 206 199 213 219 220 221 222 223 227 231 232 231 233 234 232 237 245 249 254 256 256 258 259 260 265 269 273 272 262 254 250 245 241
Height
3011 3014 3018 3022 3026 3030 3035 3039 3042 3047 3051 3054 3058 3061 3065 3069 3074 3078 3082 3086 3089 3092 3095 3098 3102 3105 3107 3110 3112 3115 3118 3120 3121 3121 3122 3127 3132 3136 3139 3142 3145 3148 3150 3152 3154 3157 3159 3161 3164 3166 3168 3170 3171 3171 3173 3174 3176 3178 3178 3179 3179 3180 3182 3182 3182 3182 3182 3182 3182 3183 3183 3184 3184 3185 3186 3186 3186 3186 3187 3187 3187 3187 3186 3186 3187 3186 3186 3186
3007 3010 3014 3018 3022 3027 3031 3035 3039 3043 3047 3051 3055 3058 3062 3066 3070 3075 3080 3083 3086 3090 3093 3096 3100 3103 3105 3108 3110 3114 3116 3117 3118 3117 3120 3127 3131 3133 3137 3139 3142 3146 3148 3150 3152 3155 3158 3160 3163 3165 3167 3168 3169 3170 3172 3173 3175 3176 3177 3177 3178 3179 3180 3179 3179 3180 3181 3182 3182 3182 3183 3183 3183 3184 3185 3185 3186 3186 3187 3187 3186 3186 3186 3185 3185 3185 3186 3186
3003 3007 3011 3014 3018 3022 3027 3031 3035 3039 3043 3047 3051 3055 3059 3063 3067 3072 3077 3081 3084 3088 3091 3094 3097 3100 3103 3105 3109 3112 3113 3114 3112 3112 3119 3125 3127 3131 3134 3137 3140 3144 3146 3148 3151 3154 3157 3160 3162 3164 3166 3167 3168 3168 3170 3171 3173 3175 3175 3175 3175 3177 3177 3177 3179 3180 3180 3181 3181 3182 3182 3182 3182 3183 3184 3185 3185 3186 3186 3186 3186 3186 3185 3184 3184 3184 3184 3185
3000 3003 3007 3011 3014 3018 3023 3027 3031 3035 3040 3044 3048 3052 3056 3060 3064 3068 3073 3078 3082 3085 3089 3092 3095 3098 3101 3103 3107 3109 3111 3110 3104 3109 3119 3122 3124 3129 3131 3135 3138 3142 3144 3146 3150 3152 3155 3158 3160 3161 3164 3166 3166 3167 3169 3169 3172 3174 3173 3174 3175 3175 3175 3176 3177 3178 3179 3180 3180 3181 3181 3181 3182 3182 3183 3184 3185 3186 3186 3185 3185 3185 3184 3184 3184 3184 3184 3184
2996 3000 3004 3007 3011 3014 3019 3023 3028 3032 3036 3040 3044 3048 3052 3056 3061 3065 3070 3075 3080 3083 3086 3090 3093 3096 3099 3101 3105 3106 3108 3104 3099 3109 3117 3118 3122 3126 3128 3133 3136 3139 3142 3145 3148 3150 3153 3156 3157 3159 3161 3164 3164 3165 3167 3168 3171 3172 3170 3173 3175 3174 3174 3174 3175 3177 3177 3178 3179 3180 3180 3180 3181 3182 3182 3183 3184 3185 3185 3184 3184 3184 3184 3183 3183 3184 3184 3184
2993 2996 3000 3004 3008 3011 3015 3020 3024 3028 3032 3036 3041 3046 3049 3053 3058 3062 3066 3071 3077 3081 3085 3088 3090 3093 3096 3100 3103 3102 3101 3098 3097 3108 3115 3116 3121 3123 3126 3130 3133 3137 3140 3143 3146 3148 3151 3153 3154 3156 3158 3162 3162 3163 3167 3167 3168 3170 3170 3172 3172 3173 3173 3172 3174 3175 3176 3177 3178 3178 3179 3179 3180 3181 3181 3182 3182 3183 3183 3183 3184 3184 3183 3183 3183 3183 3183 3184
2989 2993 2997 3000 3004 3007 3011 3016 3020 3024 3028 3032 3037 3043 3047 3050 3054 3059 3063 3068 3073 3079 3082 3085 3088 3090 3094 3097 3100 3098 3095 3094 3098 3107 3112 3115 3119 3120 3124 3128 3130 3134 3138 3141 3143 3145 3148 3150 3152 3154 3156 3159 3160 3162 3166 3165 3166 3169 3170 3169 3169 3171 3171 3171 3173 3174 3175 3175 3176 3176 3177 3178 3179 3179 3179 3180 3181 3182 3182 3183 3183 3183 3183 3183 3183 3183 3183 3183
2985 2989 2993 2997 3001 3004 3008 3012 3016 3020 3024 3028 3033 3039 3044 3047 3051 3055 3060 3064 3069 3075 3079 3082 3084 3086 3090 3091 3094 3091 3088 3092 3099 3105 3110 3113 3116 3118 3122 3124 3128 3132 3135 3138 3141 3144 3146 3147 3150 3152 3155 3158 3159 3161 3163 3163 3165 3167 3169 3168 3168 3170 3169 3170 3171 3172 3173 3174 3174 3175 3176 3176 3177 3177 3177 3179 3180 3180 3181 3182 3182 3182 3182 3182 3183 3183 3183 3183
2981 2985 2989 2993 2998 3002 3005 3009 3013 3017 3020 3024 3028 3035 3040 3044 3048 3051 3056 3061 3065 3071 3075 3078 3080 3083 3086 3087 3090 3086 3082 3090 3097 3103 3108 3111 3113 3116 3119 3122 3125 3128 3132 3136 3139 3142 3144 3146 3149 3151 3154 3157 3159 3160 3160 3162 3163 3164 3167 3166 3165 3167 3167 3169 3170 3170 3171 3172 3172 3173 3174 3175 3174 3175 3176 3178 3179 3179 3180 3181 3181 3181 3181 3181 3182 3182 3183 3183
2977 2982 2986 2990 2994 2999 3002 3006 3010 3014 3017 3021 3025 3031 3037 3041 3045 3049 3052 3057 3062 3066 3070 3074 3077 3081 3081 3082 3085 3080 3081 3092 3097 3102 3107 3108 3111 3113 3117 3120 3123 3127 3130 3133 3136 3140 3142 3144 3148 3150 3152 3154 3156 3157 3157 3160 3161 3162 3164 3163 3163 3166 3166 3167 3168 3168 3170 3170 3170 3171 3172 3172 3172 3173 3174 3175 3177 3178 3179 3179 3180 3180 3180 3180 3181 3181 3182 3182
2973 2977 2982 2987 2991 2995 2999 3003 3007 3011 3014 3017 3021 3027 3033 3038 3042 3047 3050 3053 3058 3062 3065 3070 3074 3076 3076 3077 3078 3074 3080 3091 3096 3101 3105 3106 3109 3111 3115 3119 3122 3126 3128 3132 3135 3137 3140 3142 3145 3148 3149 3150 3152 3155 3155 3156 3158 3160 3161 3161 3162 3164 3165 3165 3166 3167 3168 3168 3168 3170 3170 3170 3169 3168 3171 3173 3175 3176 3177 3177 3178 3178 3178 3179 3179 3180 3180 3181
2969 2974 2979 2983 2988 2992 2996 3000 3004 3008 3011 3014 3018 3023 3029 3034 3039 3044 3048 3050 3055 3057 3061 3067 3070 3073 3074 3073 3072 3072 3080 3089 3093 3099 3102 3104 3108 3111 3115 3118 3121 3124 3127 3130 3132 3135 3138 3140 3143 3146 3146 3146 3150 3153 3152 3154 3157 3158 3159 3161 3162 3162 3162 3163 3165 3165 3166 3166 3167 3169 3167 3166 3166 3165 3169 3173 3173 3174 3175 3175 3176 3177 3177 3177 3177 3178 3179 3180
2965 2970 2975 2980 2984 2989 2993 2997 3001 3005 3009 3012 3015 3020 3025 3030 3036 3041 3046 3049 3051 3054 3058 3063 3067 3070 3070 3068 3069 3072 3080 3087 3092 3096 3099 3102 3107 3109 3112 3115 3119 3122 3124 3126 3128 3132 3136 3138 3140 3142 3143 3145 3148 3149 3150 3153 3155 3157 3159 3160 3161 3161 3160 3161 3163 3163 3164 3165 3166 3167 3164 3162 3165 3165 3166 3170 3170 3171 3172 3173 3174 3175 3175 3175 3175 3176 3177 3178
2961 2966 2971 2976 2981 2985 2989 2994 2998 3002 3006 3009 3013 3016 3021 3027 3032 3037 3043 3047 3049 3052 3056 3059 3064 3067 3066 3066 3068 3072 3078 3083 3088 3093 3096 3099 3103 3106 3109 3112 3116 3118 3119 3122 3127 3131 3133 3135 3137 3139 3141 3143 3145 3147 3150 3152 3153 3156 3157 3157 3159 3159 3159 3160 3160 3161 3162 3163 3164 3165 3161 3159 3164 3164 3163 3166 3168 3168 3170 3171 3172 3172 3173 3173 3174 3174 3175 3176
2958 2962 2968 2973 2978 2982 2986 2990 2995 2999 3003 3007 3010 3013 3018 3023 3028 3033 3039 3043 3045 3049 3054 3055 3059 3063 3062 3061 3064 3070 3075 3078 3084 3089 3092 3096 3099 3103 3106 3109 3111 3113 3117 3121 3125 3128 3129 3132 3135 3137 3139 3141 3144 3146 3149 3150 3151 3154 3154 3154 3156 3157 3158 3159 3158 3159 3160 3160 3161 3163 3159 3157 3161 3161 3160 3164 3166 3166 3167 3169 3170 3170 3171 3171 3172 3172 3173 3174
2954 2959 2964 2969 2974 2979 2983 2987 2992 2996 3001 3004 3008 3011 3014 3019 3024 3030 3035 3039 3042 3046 3050 3051 3053 3059 3059 3056 3060 3066 3069 3072 3080 3086 3089 3093 3097 3102 3105 3107 3109 3112 3116 3119 3122 3125 3127 3130 3132 3135 3136 3139 3142 3144 3146 3148 3149 3150 3150 3152 3154 3155 3158 3158 3156 3156 3158 3158 3158 3159 3157 3157 3158 3157 3158 3161 3163 3163 3164 3165 3167 3168 3168 3169 3170 3170 3171 3172
2950 2955 2960 2965 2970 2975 2980 2985 2989 2993 2998 3001 3004 3008 3011 3015 3021 3026 3032 3036 3039 3043 3047 3048 3052 3058 3056 3052 3055 3059 3063 3068 3076 3081 3086 3091 3095 3100 3103 3105 3107 3110 3113 3116 3119 3122 3125 3127 3129 3132 3134 3136 3139 3141 3143 3142 3143 3145 3148 3151 3153 3154 3156 3156 3154 3152 3154 3156 3156 3155 3154 3154 3156 3156 3156 3158 3160 3159 3160 3162 3164 3165 3166 3167 3168 3168 3169 3169
2946 2951 2956 2961 2967 2972 2977 2982 2986 2990 2995 2998 3002 3005 3008 3012 3017 3022 3027 3032 3036 3041 3044 3046 3050 3053 3049 3046 3049 3054 3060 3066 3070 3077 3082 3087 3092 3096 3100 3103 3105 3107 3110 3113 3115 3118 3121 3124 3127 3129 3130 3132 3134 3135 3135 3135 3139 3143 3146 3149 3151 3152 3152 3153 3153 3150 3150 3153 3153 3153 3151 3151 3153 3155 3154 3155 3157 3156 3157 3159 3160 3161 3162 3163 3164 3166 3167 3167
2943 2949 2953 2957 2963 2968 2974 2979 2983 2987 2991 2995 2998 3002 3005 3010 3015 3019 3022 3027 3031 3034 3037 3038 3041 3045 3043 3042 3047 3052 3058 3063 3067 3073 3079 3083 3088 3093 3097 3100 3103 3106 3107 3109 3111 3114 3116 3119 3122 3122 3122 3124 3127 3130 3131 3135 3140 3143 3145 3147 3149 3150 3149 3151 3152 3148 3148 3150 3150 3150 3149 3149 3150 3151 3152 3153 3153 3153 3153 3155 3156 3157 3159 3160 3161 3162 3164 3165
2941 2947 2952 2956 2960 2965 2970 2976 2980 2985 2989 2991 2994 2998 3001 3005 3009 3011 3015 3020 3024 3028 3032 3034 3037 3042 3042 3040 3044 3048 3054 3060 3064 3069 3074 3079 3084 3089 3092 3095 3101 3104 3103 3105 3108 3110 3113 3116 3114 3113 3115 3120 3126 3129 3133 3138 3141 3142 3144 3146 3148 3149 3149 3150 3150 3146 3147 3148 3148 3148 3147 3146 3146 3147 3149 3150 3149 3149 3149 3150 3152 3153 3155 3156 3158 3159 3161 3163
2940 2945 2950 2955 2958 2963 2968 2973 2978 2982 2986 2989 2992 2994 2996 2998 3001 3005 3011 3018 3022 3025 3028 3032 3036 3039 3039 3039 3041 3046 3051 3055 3060 3066 3070 3074 3079 3083 3086 3090 3095 3097 3099 3103 3106 3109 3112 3110 3108 3110 3116 3122 3127 3130 3134 3137 3138 3140 3142 3144 3146 3147 3147 3148 3147 3144 3144 3145 3145 3146 3144 3143 3142 3142 3145 3146 3145 3145 3146 3147 3148 3150 3151 3152 3154 3155 3158 3160
2939 2943 2948 2953 2957 2962 2967 2972 2976 2980 2984 2987 2989 2992 2994 2998 3002 3008 3013 3015 3018 3021 3024 3028 3033 3035 3036 3037 3040 3046 3048 3051 3057 3062 3065 3069 3073 3076 3080 3086 3088 3090 3095 3100 3103 3107 3108 3104 3104 3112 3117 3122 3127 3129 3132 3135 3136 3137 3140 3143 3143 3144 3146 3147 3144 3142 3143 3143 3143 3143 3141 3139 3138 3138 3140 3141 3141 3142 3143 3144 3144 3146 3147 3148 3150 3152 3154 3156
2937 2941 2946 2951 2956 2961 2966 2970 2974 2978 2982 2983 2986 2990 2993 2998 3004 3007 3010 3012 3014 3018 3020 3024 3029 3032 3033 3034 3037 3042 3045 3048 3052 3055 3060 3065 3068 3072 3077 3080 3083 3087 3092 3094 3097 3100 3099 3098 3104 3112 3115 3119 3124 3127 3130 3132 3133 3135 3137 3140 3141 3143 3145 3144 3142 3141 3142 3141 3141 3140 3137 3134 3134 3134 3134 3137 3137 3138 3140 3141 3141 3142 3143 3145 3146 3148 3150 3152
2935 2939 2944 2949 2955 2960 2964 2969 2972 2976 2979 2982 2986 2988 2992 2998 3001 3003 3007 3011 3011 3014 3017 3021 3027 3029 3029 3032 3036 3039 3043 3048 3050 3053 3057 3060 3064 3070 3074 3077 3080 3084 3087 3089 3093 3095 3095 3099 3106 3111 3113 3116 3121 3123 3126 3128 3130 3132 3135 3137 3139 3141 3143 3142 3142 3140 3140 3140 3138 3138 3134 3129 3130 3130 3130 3133 3134 3133 3136 3138 3138 3138 3139 3141 3142 3144 3145 3147
2934 2938 2944 2949 2954 2958 2963 2967 2970 2973 2977 2980 2983 2986 2991 2995 2998 3001 3006 3008 3009 3011 3015 3019 3024 3026 3027 3032 3034 3038 3044 3046 3048 3053 3055 3057 3061 3066 3070 3076 3079 3080 3083 3088 3092 3094 3097 3102 3106 3108 3110 3114 3118 3119 3122 3125 3128 3130 3131 3134 3138 3140 3140 3141 3140 3139 3140 3139 3135 3137 3134 3125 3126 3128 3127 3130 3130 3130 3131 3132 3134 3135 3135 3137 3137 3139 3141 3143
2933 2938 2943 2948 2953 2957 2962 2965 2967 2972 2975 2978 2980 2985 2989 2992 2996 2999 3004 3007 3006 3006 3011 3016 3021 3024 3026 3030 3031 3038 3044 3042 3046 3053 3054 3057 3061 3063 3066 3071 3074 3078 3082 3088 3092 3094 3097 3102 3104 3106 3107 3111 3115 3116 3119 3123 3126 3128 3129 3132 3136 3137 3138 3138 3138 3139 3140 3137 3133 3135 3135 3126 3122 3123 3124 3126 3125 3125 3127 3126 3129 3132 3132 3132 3133 3134 3136 3138
2933 2938 2942 2947 2951 2956 2960 2963 2966 2970 2972 2975 2979 2984 2988 2991 2996 2998 3004 3009 3002 2999 3007 3013 3017 3021 3025 3029 3031 3035 3037 3037 3044 3049 3051 3056 3059 3061 3062 3064 3069 3075 3080 3085 3088 3089 3092 3097 3100 3102 3104 3108 3111 3113 3117 3121 3125 3127 3127 3131 3133 3134 3136 3136 3137 3139 3137 3134 3132 3132 3135 3128 3117 3115 3120 3122 3120 3120 3122 3122 3124 3128 3129 3128 3128 3130 3132 3134
2933 2938 2942 2946 2950 2954 2958 2961 2964 2967 2971 2974 2978 2983 2986 2990 2995 2997 3002 3006 2997 2994 3004 3009 3014 3019 3024 3028 3030 3031 3033 3035 3040 3042 3047 3054 3056 3057 3058 3059 3065 3071 3075 3079 3081 3083 3087 3091 3094 3098 3102 3105 3107 3111 3116 3120 3123 3125 3126 3129 3131 3132 3133 3134 3136 3137 3134 3133 3130 3128 3134 3128 3111 3109 3118 3118 3116 3116 3117 3119 3121 3123 3126 3125 3124 3125 3127 3129
2933 2937 2940 2944 2948 2952 2956 2960 2964 2966 2969 2973 2977 2982 2985 2989 2994 2996 2999 2999 2992 2992 3000 3007 3013 3017 3020 3025 3027 3029 3032 3034 3036 3039 3045 3050 3051 3053 3054 3058 3065 3069 3073 3077 3079 3081 3085 3088 3092 3097 3101 3103 3106 3112 3115 3117 3120 3121 3123 3126 3128 3129 3130 3132 3134 3133 3134 3132 3125 3125 3132 3127 3108 3104 3114 3115 3112 3113 3113 3116 3119 3120 3122 3122 3122 3122 3123 3125
2932 2936 2940 2944 2947 2951 2954 2958 2962 2964 2968 2972 2976 2980 2984 2988 2991 2993 2996 2993 2988 2991 2998 3005 3009 3012 3016 3021 3023 3026 3030 3032 3035 3039 3042 3045 3047 3050 3053 3059 3065 3067 3071 3075 3078 3080 3083 3088 3093 3096 3099 3103 3107 3111 3112 3116 3117 3117 3121 3123 3125 3126 3128 3131 3131 3132 3135 3127 3120 3122 3127 3129 3114 3101 3106 3111 3110 3112 3112 3113 3115 3116 3118 3119 3118 3119 3119 3120
2932 2936 2939 2943 2946 2950 2953 2956 2958 2962 2966 2971 2975 2979 2982 2985 2988 2989 2989 2987 2987 2990 2995 3002 3006 3009 3014 3017 3019 3023 3027 3030 3033 3036 3038 3040 3044 3047 3050 3054 3058 3064 3069 3073 3076 3079 3083 3087 3090 3092 3097 3102 3105 3107 3109 3112 3113 3114 3117 3120 3123 3126 3128 3130 3130 3133 3132 3122 3118 3120 3123 3129 3117 3099 3101 3108 3108 3110 3109 3109 3112 3113 3114 3115 3116 3116 3116 3117
2932 2935 2938 2942 2945 2948 2951 2954 2957 2960 2965 2969 2974 2976 2978 2982 2984 2984 2984 2985 2987 2987 2989 2996 3002 3007 3012 3015 3017 3019 3023 3027 3030 3033 3035 3037 3039 3040 3042 3044 3047 3054 3062 3067 3073 3078 3080 3082 3086 3090 3094 3097 3099 3101 3105 3108 3109 3111 3114 3117 3121 3125 3128 3129 3127 3127 3125 3119 3119 3120 3122 3122 3108 3096 3100 3104 3104 3107 3107 3107 3109 3110 3111 3113 3113 3113 3113 3113
2931 2935 2938 2941 2943 2946 2949 2952 2956 2959 2964 2968 2973 2975 2976 2978 2978 2980 2981 2983 2984 2983 2987 2994 3000 3006 3010 3012 3014 3016 3021 3024 3026 3030 3033 3034 3036 3037 3039 3041 3042 3044 3050 3058 3066 3071 3076 3079 3082 3086 3089 3091 3093 3094 3097 3099 3102 3105 3108 3112 3115 3119 3124 3123 3122 3122 3120 3118 3118 3120 3123 3116 3101 3094 3096 3098 3101 3104 3103 3104 3105 3106 3108 3109 3110 3110 3109 3110
2931 2934 2937 2940 2942 2945 2948 2951 2955 2958 2963 2967 2971 2973 2974 2975 2976 2978 2978 2980 2983 2984 2987 2992 2998 3004 3007 3008 3010 3013 3018 3022 3024 3027 3029 3031 3032 3033 3037 3040 3042 3045 3049 3055 3061 3065 3070 3072 3073 3078 3081 3084 3088 3090 3090 3092 3097 3101 3105 3110 3110 3111 3115 3115 3115 3116 3116 3115 3116 3119 3118 3107 3097 3093 3091 3094 3099 3100 3100 3101 3101 3103 3105 3106 3106 3107 3106 3107
2931 2934 2937 2940 2942 2945 2947 2951 2954 2957 2961 2965 2969 2971 2972 2973 2974 2975 2976 2979 2982 2984 2987 2991 2996 3001 3004 3007 3009 3010 3013 3017 3021 3025 3026 3026 3027 3029 3032 3035 3038 3044 3048 3053 3059 3063 3067 3066 3068 3074 3076 3080 3085 3087 3089 3093 3098 3100 3104 3107 3107 3107 3109 3110 3110 3110 3112 3113 3112 3112 3106 3094 3092 3091 3089 3093 3096 3097 3099 3099 3099 3101 3102 3103 3104 3104 3105 3104
2932 2934 2937 2939 2942 2944 2947 2950 2954 2956 2960 2964 2967 2968 2969 2971 2972 2974 2976 2979 2981 2982 2986 2991 2993 2996 3000 3004 3006 3008 3011 3013 3017 3021 3023 3024 3026 3027 3029 3031 3034 3039 3042 3046 3051 3057 3063 3065 3066 3071 3074 3079 3083 3084 3086 3092 3096 3098 3100 3101 3102 3105 3108 3110 3110 3109 3112 3110 3105 3103 3097 3090 3093 3088 3085 3091 3093 3094 3097 3095 3096 3098 3098 3100 3100 3101 3102 3101
2932 2934 2937 2939 2942 2944 2947 2950 2953 2956 2959 2963 2965 2966 2967 2969 2971 2973 2975 2978 2980 2981 2983 2985 2988 2992 2997 3000 3002 3003 3006 3010 3013 3016 3019 3022 3023 3024 3027 3029 3032 3037 3041 3044 3047 3050 3055 3061 3063 3067 3071 3075 3078 3082 3086 3090 3092 3093 3094 3096 3100 3106 3108 3109 3109 3108 3110 3107 3099 3097 3093 3091 3094 3086 3081 3088 3089 3090 3093 3093 3093 3094 3094 3095 3096 3097 3098 3097
2931 2934 2936 2939 2941 2944 2946 2949 2953 2956 2959 2962 2964 2965 2966 2968 2970 2973 2975 2977 2980 2980 2981 2982 2985 2988 2992 2996 2998 2999 3002 3005 3008 3012 3015 3018 3019 3021 3024 3026 3029 3035 3040 3045 3049 3049 3051 3058 3063 3066 3068 3071 3075 3080 3084 3087 3089 3089 3090 3093 3098 3102 3103 3104 3105 3103 3105 3103 3096 3092 3090 3089 3088 3081 3079 3085 3087 3087 3090 3091 3091 3092 3092 3093 3093 3094 3095 3095
2931 2934 2936 2938 2941 2944 2946 2949 2953 2956 2958 2960 2962 2963 2965 2967 2969 2972 2974 2976 2978 2979 2981 2982 2983 2985 2989 2992 2995 2997 2998 3000 3002 3006 3011 3013 3015 3018 3021 3023 3026 3032 3038 3044 3047 3048 3050 3055 3061 3064 3066 3069 3072 3075 3078 3080 3083 3086 3089 3091 3094 3096 3097 3098 3099 3098 3098 3099 3094 3090 3086 3081 3078 3076 3078 3083 3084 3085 3087 3088 3089 3089 3089 3089 3090 3091 3091 3092
2931 2934 2936 2938 2941 2944 2946 2950 2952 2955 2957 2958 2960 2961 2964 2966 2968 2971 2973 2975 2977 2979 2981 2982 2982 2983 2986 2990 2993 2996 2997 2997 2999 3002 3005 3009 3013 3016 3019 3021 3024 3029 3036 3042 3043 3046 3049 3052 3057 3062 3065 3067 3067 3067 3069 3071 3074 3079 3082 3085 3087 3090 3092 3094 3095 3095 3096 3096 3093 3090 3083 3075 3073 3074 3075 3078 3081 3082 3084 3084 3085 3086 3085 3085 3086 3087 3087 3088
2931 2933 2935 2938 2941 2944 2946 2948 2951 2953 2955 2957 2959 2961 2962 2965 2967 2970 2972 2974 2976 2978 2980 2981 2981 2982 2984 2988 2991 2994 2997 2997 2998 2999 3001 3004 3007 3011 3014 3018 3021 3026 3033 3037 3039 3042 3047 3049 3052 3056 3059 3061 3061 3061 3065 3070 3072 3074 3075 3079 3082 3085 3089 3093 3093 3092 3094 3094 3092 3090 3082 3070 3069 3072 3072 3075 3078 3079 3080 3081 3082 3083 3083 3083 3083 3083 3084 3085
2931 2932 2935 2937 2940 2943 2946 2948 2950 2951 2953 2955 2958 2959 2961 2964 2967 2969 2971 2973 2975 2977 2978 2979 2979 2981 2984 2986 2989 2992 2995 2996 2997 2997 2998 3000 3002 3006 3011 3015 3019 3024 3028 3031 3033 3037 3043 3045 3048 3052 3055 3057 3059 3061 3064 3067 3070 3073 3075 3078 3081 3082 3085 3087 3087 3087 3091 3091 3090 3092 3083 3066 3063 3069 3070 3073 3076 3075 3076 3078 3079 3080 3080 3081 3081 3081 3082 3082
2930 2932 2934 2937 2940 2942 2945 2947 2948 2949 2950 2953 2956 2958 2960 2963 2965 2967 2969 2972 2974 2976 2977 2978 2978 2980 2983 2985 2988 2990 2993 2994 2996 2996 2997 2999 3001 3004 3008 3012 3016 3021 3024 3027 3030 3035 3040 3042 3046 3052 3055 3056 3058 3060 3062 3065 3069 3071 3072 3073 3075 3075 3076 3080 3083 3085 3088 3087 3087 3090 3082 3062 3057 3064 3067 3069 3072 3072 3074 3076 3077 3078 3078 3079 3079 3078 3079 3079
2929 2931 2933 2936 2939 2941 2943 2944 2945 2946 2948 2951 2954 2956 2959 2961 2963 2965 2968 2970 2972 2974 2976 2977 2978 2980 2982 2984 2986 2988 2991 2993 2993 2995 2997 2998 3000 3002 3004 3008 3012 3014 3018 3021 3024 3029 3035 3038 3041 3048 3054 3057 3059 3061 3062 3062 3061 3060 3061 3064 3067 3069 3074 3079 3083 3084 3083 3081 3081 3083 3074 3057 3054 3061 3064 3066 3069 3069 3072 3073 3074 3074 3074 3075 3076 3076 3076 3077
2928 2931 2933 2935 2937 2939 2940 2942 2944 2946 2948 2950 2952 2954 2956 2958 2960 2963 2966 2968 2970 2972 2974 2976 2977 2979 2981 2983 2985 2987 2989 2990 2991 2993 2995 2996 2998 2999 3002 3006 3009 3010 3015 3019 3021 3026 3030 3032 3032 3034 3037 3040 3041 3042 3041 3041 3044 3049 3054 3059 3062 3067 3072 3075 3078 3081 3078 3074 3076 3076 3066 3055 3055 3060 3060 3062 3065 3066 3069 3071 3071 3072 3072 3072 3074 3074 3074 3075
2926 2928 2931 2933 2935 2937 2938 2941 2944 2946 2948 2951 2952 2953 2955 2957 2959 2961 2963 2965 2967 2969 2972 2974 2976 2978 2979 2981 2983 2984 2986 2988 2990 2991 2992 2994 2995 2997 3000 3004 3006 3009 3015 3018 3021 3025 3028 3028 3027 3026 3024 3024 3024 3026 3027 3031 3040 3047 3051 3057 3061 3065 3070 3073 3075 3074 3070 3070 3074 3071 3063 3056 3055 3057 3057 3057 3060 3063 3066 3068 3069 3069 3070 3071 3072 3072 3072 3072
2924 2926 2928 2930 2932 2933 2936 2939 2941 2942 2945 2948 2949 2950 2952 2954 2957 2959 2961 2963 2965 2967 2969 2971 2972 2974 2976 2978 2981 2982 2984 2986 2987 2988 2990 2992 2993 2996 2999 3001 3004 3008 3012 3015 3018 3021 3023 3023 3024 3025 3026 3026 3027 3028 3030 3036 3042 3046 3049 3053 3057 3061 3066 3070 3069 3065 3066 3072 3069 3059 3058 3055 3049 3051 3055 3055 3056 3060 3062 3065 3066 3067 3068 3069 3069 3069 3069 3069
2921 2924 2927 2929 2930 2930 2932 2935 2937 2939 2942 2944 2945 2947 2949 2951 2954 2956 2958 2961 2963 2964 2966 2967 2968 2971 2973 2976 2979 2980 2981 2984 2984 2986 2988 2990 2992 2994 2996 2999 3002 3005 3009 3012 3013 3016 3018 3018 3019 3024 3027 3028 3029 3029 3031 3036 3042 3044 3047 3049 3050 3054 3057 3059 3058 3054 3058 3062 3053 3046 3053 3052 3043 3046 3054 3055 3055 3056 3059 3062 3064 3065 3066 3066 3066 3066 3066 3067
2919 2921 2924 2927 2928 2928 2931 2934 2937 2939 2940 2942 2944 2944 2946 2948 2951 2953 2956 2958 2959 2961 2963 2963 2965 2969 2971 2973 2976 2976 2977 2980 2980 2981 2984 2987 2990 2992 2994 2996 2997 3001 3006 3007 3008 3012 3015 3015 3018 3022 3025 3026 3028 3029 3031 3035 3040 3042 3044 3045 3047 3048 3049 3050 3048 3046 3050 3051 3043 3044 3052 3047 3039 3044 3051 3053 3054 3055 3056 3058 3061 3062 3063 3064 3063 3064 3064 3065
2916 2919 2922 2924 2925 2926 2928 2932 2935 2937 2939 2941 2942 2942 2944 2946 2948 2951 2953 2955 2956 2958 2960 2962 2964 2967 2969 2970 2971 2971 2973 2976 2977 2978 2981 2984 2986 2988 2990 2990 2991 2996 3001 3002 3005 3008 3011 3012 3015 3020 3022 3024 3026 3027 3029 3032 3035 3037 3038 3041 3043 3044 3044 3043 3039 3040 3046 3042 3036 3045 3050 3039 3033 3041 3047 3050 3052 3053 3052 3053 3055 3058 3060 3060 3061 3061 3062 3063
2913 2916 2919 2921 2921 2923 2925 2927 2931 2933 2934 2936 2937 2939 2942 2943 2945 2949 2950 2951 2954 2956 2958 2960 2962 2964 2965 2967 2967 2967 2970 2973 2974 2976 2979 2981 2983 2985 2986 2986 2988 2990 2993 2996 3000 3002 3005 3009 3012 3017 3019 3018 3020 3024 3027 3030 3033 3034 3034 3034 3035 3034 3032 3029 3028 3033 3037 3033 3034 3046 3044 3028 3027 3037 3043 3046 3048 3049 3048 3048 3050 3054 3056 3057 3057 3058 3060 3060
2911 2913 2916 2918 2918 2920 2922 2924 2927 2928 2928 2930 2932 2934 2936 2938 2941 2946 2947 2947 2949 2952 2955 2958 2960 2962 2961 2961 2962 2965 2969 2971 2973 2976 2977 2979 2982 2983 2983 2984 2986 2985 2986 2989 2992 2994 2998 3002 3006 3010 3012 3011 3014 3020 3024 3028 3030 3026 3021 3020 3021 3020 3020 3023 3025 3027 3029 3029 3034 3036 3028 3022 3028 3036 3039 3041 3043 3044 3045 3046 3047 3050 3051 3052 3052 3053 3054 3055